Pian Rosa, Italy

10:35 AM CET on February 27, 2017 (GMT +0100)
Pian Rosa

Weather History for LIMH - February, 2014

Change the Weather History Date:

Thursday, February 20, 2014

  Actual Average Record
Temperature  
Mean Temperature 12 °F -  
Max Temperature 17 °F 18 °F 32 °F (1998)
Min Temperature 6 °F 7 °F -11 °F (2000)
Degree Days  
Heating Degree Days 54    
Moisture  
Dew Point -12 °F    
Average Humidity 33    
Maximum Humidity 92    
Minimum Humidity 5    
Precipitation  
Precipitation 0.00 in - - ()
Sea Level Pressure  
Sea Level Pressure 29.84 in    
Wind  
Wind Speed 13 mph ()    
Max Wind Speed 22 mph    
Max Gust Speed 31 mph    
Visibility 6.8 miles    
Events Fog , Snow    
Averages and records for this station are not official NWS values.
T = Trace of Precipitation, MM = Missing Value Source: Averaged Metar Reports

Daily Weather History Graph

Daily Weather History Graph

Search for Another Location

Airport or City:

Trip Planner

Search our weather history database for the weather conditions in past years. The results will help you decide how hot, cold, wet, or windy it might be!

Date:

Astronomy

Feb. 20, 2014 Rise Set
Actual Time 7:24 AM CET 6:02 PM CET
Civil Twilight 6:53 AM CET 6:32 PM CET
Nautical Twilight 6:18 AM CET 7:07 PM CET
Astronomical Twilight 5:44 AM CET 7:42 PM CET
Moon No Moon Rise 9:38 AM CET (2/20)
Length of Visible Light 11h 39m
Length of Day
10h 38m
Waning Gibbous, 73% of the Moon is Illuminated
Feb 20
Waning Gibbous
Feb 22
Last Quarter
Mar 1
New
Mar 8
First Quarter
Mar 16
Full

Hourly Weather History & Observations

Time (CET) Temp. Windchill Dew Point Humidity Pressure Visibility Wind Dir Wind Speed Gust Speed Precip Events Conditions
12:00 AM 8 °F - 6 °F 87%  in 6 mi ENE 21.9 mph - -  
12:55 AM 6.8 °F -12.4 °F 5.0 °F 92% 29.80 in - ENE 18.4 mph - N/A   Clear
1:00 AM 7 °F - 5 °F 86%  in 6 mi ENE 18.4 mph - -   Partly Cloudy
1:55 AM 6.8 °F -11.8 °F 5.0 °F 92% 29.80 in - ENE 17.3 mph - N/A   Clear
2:00 AM 6 °F - 5 °F 91%  in 6 mi ENE 17.3 mph - -  
2:55 AM 8.6 °F -10.5 °F 6.8 °F 92% 29.80 in - ENE 19.6 mph 31.1 mph N/A   Clear
3:00 AM 9 °F - 6 °F 83%  in 6 mi ENE 19.6 mph - -  
3:55 AM 10.4 °F -5.4 °F -5.8 °F 48% 29.80 in - ENE 13.8 mph - N/A   Clear
4:00 AM 10 °F - -7 °F 31%  in 6 mi ENE 13.8 mph - -  
4:55 AM 6.8 °F -12.4 °F -4.0 °F 61% 29.80 in - ENE 18.4 mph - N/A   Clear
5:00 AM 7 °F - -5 °F 43%  in 6 mi ENE 18.4 mph - -  
5:55 AM 10.4 °F -4.8 °F -11.2 °F 37% 29.80 in - ENE 12.7 mph - N/A   Clear
6:00 AM 10 °F - -10 °F 23%  in 7 mi ENE 12.7 mph - -  
6:55 AM 10.4 °F -6.0 °F -11.2 °F 37% 29.80 in - ENE 15.0 mph - N/A   Clear
7:00 AM 10 °F - -10 °F 23%  in 12 mi ENE 15.0 mph - -  
7:55 AM 12.2 °F -3.1 °F -9.4 °F 38% 29.83 in - ENE 13.8 mph - N/A   Clear
8:00 AM 12 °F - -10 °F 20%  in 25 mi ENE 13.8 mph - -  
8:55 AM 14.0 °F 0.5 °F -11.2 °F 32% 29.83 in - ENE 11.5 mph - N/A   Clear
9:00 AM 14 °F - -12 °F 16%  in 25 mi ENE 11.5 mph - -  
9:55 AM 15.8 °F 2.7 °F -16.6 °F 23% 29.86 in - ENE 11.5 mph - N/A   Clear
10:00 AM 16 °F - -17 °F 9%  in 37 mi ENE 11.5 mph - -  
10:55 AM 15.8 °F 3.4 °F -22.0 °F 17% 29.86 in - ENE 10.4 mph - N/A   Clear
11:00 AM 16 °F - -21 °F 6%  in 37 mi ENE 10.4 mph - -  
11:55 AM 15.8 °F 2.7 °F -22.0 °F 17% 29.86 in - ENE 11.5 mph - N/A   Clear
12:00 PM 16 °F - -22 °F 6%  in 37 mi ENE 11.5 mph - -  
12:55 PM 17.6 °F 7.3 °F -22.0 °F 16% 29.86 in - ENE 8.1 mph - N/A   Clear
1:00 PM 17 °F - -22 °F 6%  in 37 mi ENE 8.1 mph - -  
1:55 PM 17.6 °F 8.2 °F -22.0 °F 16% 29.86 in - ENE 6.9 mph - N/A   Clear
2:00 PM 17 °F - -22 °F 6%  in 37 mi ENE 6.9 mph - -  
2:55 PM 17.6 °F 8.2 °F -22.0 °F 16% 29.86 in - NE 6.9 mph - N/A   Clear
3:00 PM 18 °F - -22 °F 5%  in 47 mi NE 6.9 mph - -  
3:55 PM 15.8 °F 2.1 °F -22.0 °F 17% 29.86 in - ENE 12.7 mph - N/A   Clear
4:00 PM 16 °F - -22 °F 6%  in 47 mi ENE 12.7 mph - -  
4:55 PM 15.8 °F 3.4 °F -22.0 °F 17% 29.86 in - ENE 10.4 mph - N/A   Clear
5:00 PM 15 °F - -22 °F 7%  in 47 mi ENE 10.4 mph - -  
5:55 PM 15.8 °F 2.1 °F -22.0 °F 17% 29.86 in - ENE 12.7 mph - N/A   Clear
6:00 PM 16 °F - -22 °F 6%  in 31 mi ENE 12.7 mph - -   Clear
6:55 PM 17.6 °F 5.7 °F -22.0 °F 16% 29.86 in - ENE 10.4 mph - N/A   Clear
7:00 PM 17 °F - -22 °F 6%  in 16 mi ENE 10.4 mph - -   Clear
7:55 PM 15.8 °F 4.2 °F -22.0 °F 17% 29.89 in - ENE 9.2 mph - N/A   Clear
8:00 PM 16 °F - -22 °F 6%  in 7 mi ENE 9.2 mph - -   Clear
8:55 PM 15.8 °F 0.9 °F -22.0 °F 17% 29.86 in - NE 15.0 mph - N/A   Clear
9:00 PM 16 °F - -22 °F 6%  in 6 mi NE 15.0 mph - -  
9:55 PM 15.8 °F 0.3 °F -5.8 °F 38% 29.86 in - NE 16.1 mph - N/A   Clear
10:00 PM 16 °F - -5 °F 23%  in 6 mi NE 16.1 mph - -  
10:55 PM 17.6 °F 5.0 °F 10.4 °F 73% 29.86 in 6.2 mi East 11.5 mph - N/A   Partly Cloudy
11:00 PM 17 °F - 11 °F 68%  in 6 mi East 11.5 mph - -   Scattered Clouds
11:55 PM 17.6 °F 10.7 °F 14.0 °F 86% 29.86 in 0.5 mi NE 4.6 mph - N/A Fog , Snow Light Snow